Pittsfield, IL

2:17 AM CST on February 21, 2018 (GMT -0600)
Pittsfield Penstone Municipal

Weather History for KPPQ - March, 2013

Change the Weather History Date:

Sunday, March 24, 2013

  Actual Average (KUIN) Record (KUIN)
Temperature  
Mean Temperature 33 °F -  
Max Temperature 33 °F 50 °F 85 °F (1929)
Min Temperature 31 °F 31 °F 9 °F (1960)
Degree Days  
Heating Degree Days 32    
Moisture  
Dew Point 30 °F    
Average Humidity 94    
Maximum Humidity 99    
Minimum Humidity 88    
Precipitation  
Precipitation 0.12 in - - ()
Sea Level Pressure  
Sea Level Pressure 29.76 in    
Wind  
Wind Speed 13 mph (North)    
Max Wind Speed 22 mph    
Max Gust Speed 28 mph    
Visibility 2 miles    
Events Rain , Snow    
Averages and records for this station are not official NWS values.
T = Trace of Precipitation, MM = Missing Value Source: NWS Daily Summary

Daily Weather History Graph

Daily Weather History Graph

Search for Another Location

Airport or City:

Trip Planner

Search our weather history database for the weather conditions in past years. The results will help you decide how hot, cold, wet, or windy it might be!

Date:

Astronomy

Mar. 24, 2013 Rise Set
Actual Time 6:59 AM CDT 7:19 PM CDT
Civil Twilight 6:32 AM CDT 7:46 PM CDT
Nautical Twilight 6:01 AM CDT 8:18 PM CDT
Astronomical Twilight 5:28 AM CDT 8:50 PM CDT
Moon 4:48 PM CDT (3/24) 5:09 AM CDT (3/24)
Length of Visible Light 13h 13m
Length of Day
12h 19m
Waxing Gibbous, 92% of the Moon is Illuminated
Mar 24
Waxing Gibbous
Mar 27
Full
Apr 2
Last Quarter
Apr 10
New
Apr 18
First Quarter

Hourly Weather History & Observations

Time (CDT) Temp. Windchill Dew Point Humidity Pressure Visibility Wind Dir Wind Speed Gust Speed Precip Events Conditions
12:15 AM 35.8 °F 27.3 °F 32.5 °F 88% 29.93 in 5.0 mi NE 12.7 mph 18.4 mph 0.02 in Rain Rain
12:35 AM 34.2 °F 28.2 °F 32.4 °F 93% 29.93 in 1.8 mi NE 6.9 mph - 0.04 in Snow Light Snow
12:55 AM 33.8 °F 28.6 °F 32.4 °F 94% 29.94 in 1.5 mi NNE 5.8 mph - 0.05 in   Overcast
1:15 AM 33.8 °F 26.4 °F 32.5 °F 95% 29.93 in 1.8 mi NE 9.2 mph - N/A Rain Rain
1:35 AM 33.6 °F 27.5 °F 32.4 °F 95% 29.93 in 1.0 mi NE 6.9 mph - 0.01 in Snow Light Snow
1:55 AM 33.3 °F 25.1 °F 32.2 °F 96% 29.92 in 1.2 mi NE 10.4 mph - 0.02 in Snow Light Snow
2:15 AM 33.1 °F 24.4 °F 32.2 °F 96% 29.91 in 1.0 mi NE 11.5 mph - 0.02 in Snow Light Snow
2:35 AM 32.9 °F 25.3 °F 32.0 °F 96% 29.89 in 1.5 mi NE 9.2 mph 17.3 mph 0.02 in Snow Light Snow
2:55 AM 32.4 °F 22.5 °F 31.8 °F 98% 29.86 in 1.8 mi NE 13.8 mph - 0.02 in Snow Light Snow
3:15 AM 32.0 °F 21.6 °F 31.6 °F 99% 29.85 in 2.0 mi NE 15.0 mph 19.6 mph N/A Snow Light Snow
3:35 AM 32.0 °F 22.1 °F 31.1 °F 96% 29.84 in 2.5 mi NE 13.8 mph 20.7 mph N/A Snow Light Snow
3:55 AM 32.0 °F 24.8 °F 30.7 °F 95% 29.84 in 5.0 mi NNE 8.1 mph - N/A Rain Light Rain
4:15 AM 31.8 °F 24.6 °F 30.6 °F 95% 29.85 in 5.0 mi NE 8.1 mph - N/A Rain Light Freezing Rain
4:35 AM 31.6 °F 24.4 °F 30.2 °F 94% 29.84 in 5.0 mi NE 8.1 mph - N/A   Light Freezing Rain
4:55 AM 31.6 °F 22.6 °F 30.2 °F 94% 29.83 in 5.0 mi NE 11.5 mph 16.1 mph N/A   Light Freezing Rain
5:15 AM 31.6 °F 22.1 °F 30.2 °F 94% 29.80 in 5.0 mi NNE 12.7 mph - N/A   Light Freezing Rain
5:35 AM 31.5 °F 22.3 °F 30.0 °F 94% 29.79 in 5.0 mi NE 11.5 mph 18.4 mph N/A   Light Freezing Rain
5:55 AM 31.5 °F 21.8 °F 30.0 °F 94% 29.79 in 5.0 mi NE 12.7 mph 17.3 mph N/A   Light Freezing Rain
6:15 AM 31.1 °F 21.4 °F 29.8 °F 95% 29.75 in 5.0 mi NNE 12.7 mph - N/A   Light Freezing Rain
6:35 AM 31.1 °F 21.4 °F 29.8 °F 95% 29.78 in 7.0 mi NE 12.7 mph 18.4 mph N/A   Light Freezing Rain
6:55 AM 31.1 °F 21.4 °F 29.7 °F 94% 29.73 in 7.0 mi NE 12.7 mph 19.6 mph N/A   Overcast
7:15 AM 31.1 °F 20.5 °F 29.8 °F 95% 29.72 in 7.0 mi NE 15.0 mph 20.7 mph N/A   Overcast
7:35 AM 31.1 °F 20.5 °F 29.7 °F 94% 29.71 in 4.0 mi NE 15.0 mph 19.6 mph N/A   Overcast
7:55 AM 31.1 °F 20.5 °F 29.7 °F 94% 29.70 in 4.0 mi NE 15.0 mph 19.6 mph N/A   Overcast
8:15 AM 31.1 °F 23.7 °F 29.8 °F 95% 29.75 in 4.0 mi NNE 8.1 mph - N/A Rain Light Freezing Rain
8:35 AM 31.1 °F 21.4 °F 29.7 °F 94% 29.73 in 1.5 mi NNE 12.7 mph 17.3 mph N/A Snow Light Snow
8:55 AM 31.1 °F 23.1 °F 29.8 °F 95% 29.73 in 0.5 mi North 9.2 mph 17.3 mph 0.01 in Snow Light Snow
9:15 AM 31.1 °F 22.4 °F 29.8 °F 95% 29.75 in 0.8 mi North 10.4 mph - N/A Rain Light Freezing Rain
9:35 AM 31.6 °F 23.7 °F 30.2 °F 94% 29.73 in 0.5 mi North 9.2 mph - N/A Rain Light Freezing Rain
9:55 AM 31.5 °F 21.4 °F 30.2 °F 95% 29.73 in 1.0 mi North 13.8 mph 17.3 mph 0.01 in Rain Light Freezing Rain
10:15 AM 31.1 °F 22.4 °F 30.0 °F 96% 29.72 in 0.2 mi North 10.4 mph 19.6 mph N/A Snow Snow
10:35 AM 31.1 °F 21.4 °F 29.8 °F 95% 29.71 in 0.2 mi North 12.7 mph 19.6 mph N/A Snow Snow
10:55 AM 31.1 °F 21.4 °F 29.7 °F 94% 29.71 in 0.2 mi North 12.7 mph 19.6 mph 0.01 in Snow Light Snow
11:15 AM 31.1 °F 20.9 °F 29.7 °F 94% 29.72 in 0.5 mi North 13.8 mph - N/A   Overcast
11:35 AM 31.1 °F 20.1 °F 29.7 °F 94% 29.69 in 0.2 mi North 16.1 mph 23.0 mph N/A Snow Snow
11:55 AM 31.1 °F 21.9 °F 29.8 °F 95% 29.69 in 0.5 mi North 11.5 mph 23.0 mph N/A   Overcast
12:15 PM 31.5 °F 20.1 °F 29.8 °F 94% 29.67 in - North 17.3 mph 23.0 mph N/A   Overcast
12:35 PM 31.6 °F 21.6 °F 30.0 °F 94% 29.67 in 0.5 mi North 13.8 mph 21.9 mph N/A   Overcast
12:55 PM 32.0 °F 20.5 °F 30.2 °F 93% 29.67 in 0.5 mi North 18.4 mph 25.3 mph N/A Snow Light Snow
1:15 PM 31.8 °F 20.6 °F 30.0 °F 93% 29.66 in 0.5 mi North 17.3 mph 25.3 mph N/A Snow Light Snow
1:35 PM 32.0 °F 20.1 °F 30.2 °F 93% 29.65 in 0.5 mi North 19.6 mph 27.6 mph N/A Snow Light Snow
1:55 PM 32.0 °F 19.5 °F 30.2 °F 93% 29.65 in 0.8 mi North 21.9 mph 27.6 mph N/A Snow Light Snow
2:15 PM 32.0 °F 20.5 °F 30.2 °F 93% 29.65 in 0.5 mi North 18.4 mph 26.5 mph N/A Snow Light Snow
2:35 PM 32.0 °F 21.2 °F 30.2 °F 93% 29.64 in 0.8 mi NNW 16.1 mph 25.3 mph N/A Snow Light Snow
2:55 PM 32.0 °F 20.1 °F 30.2 °F 93% 29.65 in 0.8 mi NNW 19.6 mph 25.3 mph N/A Snow Light Snow
3:15 PM 32.0 °F 20.5 °F 30.2 °F 93% 29.66 in 0.5 mi NNW 18.4 mph 25.3 mph N/A Snow Snow
3:35 PM 32.0 °F 20.5 °F 30.7 °F 95% 29.66 in 0.5 mi NNW 18.4 mph 24.2 mph N/A Snow Light Snow
3:55 PM 32.0 °F 20.5 °F 30.4 °F 94% 29.67 in 0.8 mi NNW 18.4 mph 25.3 mph N/A Snow Light Snow
4:15 PM 32.2 °F 21.1 °F 30.7 °F 94% 29.67 in 0.8 mi NW 17.3 mph 26.5 mph N/A Snow Light Snow
4:35 PM 32.0 °F 20.8 °F 30.7 °F 95% 29.68 in 0.8 mi NW 17.3 mph 21.9 mph N/A Snow Light Snow
4:55 PM 32.0 °F 21.6 °F 30.7 °F 95% 29.69 in 1.0 mi NW 15.0 mph 20.7 mph N/A Snow Light Snow
5:15 PM 32.0 °F 20.8 °F 30.7 °F 95% 29.69 in 1.0 mi NW 17.3 mph 23.0 mph N/A Snow Light Snow
5:35 PM 32.2 °F 21.4 °F 30.9 °F 95% 29.70 in 1.0 mi NW 16.1 mph - N/A Snow Light Snow
5:55 PM 32.2 °F 21.1 °F 31.1 °F 96% 29.72 in 1.0 mi NW 17.3 mph 20.7 mph N/A Snow Light Snow
6:15 PM 32.4 °F 20.9 °F 31.1 °F 95% 29.72 in 1.0 mi NW 18.4 mph 21.9 mph N/A Snow Light Snow
6:35 PM 32.4 °F 21.7 °F 31.1 °F 95% 29.73 in 0.8 mi NW 16.1 mph - N/A Snow Light Snow
6:55 PM 32.4 °F 21.3 °F 31.1 °F 95% 29.75 in 1.2 mi NW 17.3 mph 20.7 mph N/A Snow Light Snow
7:15 PM 32.2 °F 21.4 °F 31.1 °F 96% 29.76 in 1.2 mi NW 16.1 mph - N/A Snow Light Snow
7:35 PM 32.0 °F 20.8 °F 30.9 °F 96% 29.76 in 2.0 mi NW 17.3 mph - N/A Snow Light Snow
7:55 PM 32.0 °F 20.5 °F 30.6 °F 94% 29.77 in 3.0 mi NW 18.4 mph 25.3 mph N/A Snow Light Snow
8:15 PM 32.0 °F 20.5 °F 30.6 °F 94% 29.78 in 2.5 mi NW 18.4 mph 23.0 mph N/A Snow Light Snow
8:35 PM 32.0 °F 20.5 °F 30.2 °F 93% 29.79 in 2.0 mi NW 18.4 mph 21.9 mph N/A Snow Light Snow
8:55 PM 32.0 °F 21.2 °F 30.2 °F 93% 29.80 in 2.0 mi NW 16.1 mph - N/A Snow Light Snow
9:15 PM 32.0 °F 21.2 °F 30.2 °F 93% 29.81 in 2.0 mi NW 16.1 mph - N/A Snow Light Snow
9:35 PM 32.0 °F 21.6 °F 30.0 °F 92% 29.81 in 2.5 mi NW 15.0 mph 21.9 mph N/A Snow Light Snow
9:55 PM 32.0 °F 21.2 °F 29.8 °F 92% 29.82 in 2.5 mi NW 16.1 mph 21.9 mph N/A Snow Light Snow
10:15 PM 32.0 °F 21.2 °F 29.5 °F 90% 29.82 in 3.0 mi NW 16.1 mph 23.0 mph N/A Snow Light Snow
10:35 PM 31.8 °F 21.4 °F 29.3 °F 90% 29.83 in 3.0 mi NW 15.0 mph 20.7 mph N/A Snow Light Snow
10:55 PM 31.6 °F 21.2 °F 29.3 °F 91% 29.83 in 3.0 mi NW 15.0 mph - N/A Snow Light Snow
11:15 PM 31.5 °F 21.4 °F 29.3 °F 92% 29.84 in 3.0 mi NW 13.8 mph 20.7 mph N/A Snow Light Snow
11:35 PM 31.1 °F 22.4 °F 29.3 °F 93% 29.83 in 2.5 mi WNW 10.4 mph - N/A Snow Light Snow
11:55 PM 31.1 °F 23.1 °F 29.3 °F 93% 29.84 in 2.5 mi WNW 9.2 mph - N/A Snow Light Snow